Back to catalog

DELTA 1 DEB

AliveSSO
NORAD 26842·DEBRIS·🇺🇸 United States

Launched Jun 12, 1975 from Vandenberg Space Force Base

Loading…

Next Passes (next 24 hours)

TLE

FreshSource: Space-Track

Epoch: Sep 13, 2026, 22:17 UTC

1 26842U 75052KW  26256.92851817  .00000521  00000-0  55794-3 0  9994
2 26842  99.8383 253.0395 0039347  55.6688   8.1076 13.78602470429617

Track DELTA 1 DEB in real time with AllMySat

Download on the App Store